Date,TemperatureHighF,TemperatureAvgF,TemperatureLowF,DewpointHighF,DewpointAvgF,DewpointLowF,HumidityHigh,HumidityAvg,HumidityLow,PressureMaxIn,PressureMinIn,WindSpeedMaxMPH,WindSpeedAvgMPH,GustSpeedMaxMPH,PrecipitationSumIn
2013-2-1,54.7,54.3,53.7,37.8,37.0,35.8,54,52,49,30.10,30.08,9,3,9,0.01
2013-2-2,74.8,65.6,55.9,50.3,45.4,37.7,69,49,32,30.17,30.07,6,1,7,0.00
2013-2-3,74.5,61.7,50.6,50.9,46.1,41.5,71,57,41,30.11,29.97,12,2,12,0.01
2013-2-4,71.0,57.1,47.9,54.1,46.2,38.6,90,68,46,30.07,29.96,9,1,9,0.00
2013-2-5,56.4,49.1,44.0,49.6,45.5,41.2,92,87,77,30.10,29.97,10,1,10,0.01
2013-2-6,65.3,53.1,45.0,49.4,45.4,40.1,86,76,51,30.10,29.99,10,1,10,0.00
2013-2-7,62.4,51.1,42.8,51.2,44.2,38.6,87,78,62,30.12,29.99,11,1,11,0.00
2013-2-8,49.3,44.9,40.1,45.9,40.9,36.4,92,86,73,30.01,29.89,24,2,24,0.15
2013-2-9,58.4,45.3,34.9,42.3,36.6,31.9,90,73,50,30.10,29.92,13,3,13,0.05
2013-2-10,53.5,45.4,39.0,43.3,37.1,30.8,80,73,58,30.10,30.01,11,2,11,0.03
2013-2-11,64.1,48.4,37.4,42.3,32.3,21.8,85,59,20,30.22,30.05,23,3,23,0.01
2013-2-12,62.4,49.0,37.0,44.5,32.0,22.1,64,52,37,30.33,30.22,13,2,13,0.01
2013-2-13,67.3,52.8,40.5,45.1,35.2,27.4,68,52,35,30.26,30.12,9,1,10,0.00
2013-2-14,73.2,58.9,43.8,49.4,39.0,29.1,71,49,31,30.19,30.03,13,2,13,0.00
2013-2-15,83.1,67.4,55.1,34.5,28.8,21.2,37,24,14,30.16,30.08,27,4,27,0.00
2013-2-16,80.3,67.8,55.5,37.4,26.7,18.7,31,22,15,30.12,29.94,29,5,29,0.00
2013-2-17,70.1,55.8,46.5,49.8,37.0,21.6,90,53,28,30.01,29.90,12,2,12,0.00
2013-2-18,65.7,52.1,45.9,48.1,43.7,40.1,87,74,49,30.06,29.95,12,2,12,0.00
2013-2-19,49.2,47.5,45.2,44.9,41.2,36.9,90,79,65,29.97,29.80,12,2,12,0.05
2013-2-23,65.1,51.5,41.1,44.9,36.3,27.7,82,58,35,30.15,29.92,6,2,11,0.02
2013-2-24,68.1,54.3,42.7,42.0,25.1,10.6,85,40,14,30.18,29.96,13,3,35,0.01
2013-2-25,68.3,53.6,42.2,30.4,23.9,13.1,45,32,18,30.20,30.07,5,2,12,0.00
2013-2-26,70.2,54.3,38.9,46.1,34.2,22.8,64,47,32,30.09,29.96,4,1,11,0.00
2013-2-27,77.8,61.8,50.3,33.5,23.2,16.2,34,23,14,30.24,30.09,8,2,20,0.00
2013-2-28,80.3,62.1,48.0,37.9,26.2,16.2,35,26,15,30.28,30.20,6,2,13,0.00